KE5KZS Weather Reports


Display with metric or nautical units.
time (UTC)temp
F
wind
direction
speed
MPH
gust
MPH
rain 1hr
in
rain 24hr
in
rain mn
in
humidity
%
barometer
mb
20260904171517 94 158 3.0 8.0 0.00 0.00 0.00 53 1013.3
20260904170517 94 135 5.0 12.0 0.00 0.00 0.00 55 1013.5
20260904165517 93 180 3.0 7.0 0.00 0.00 0.00 57 1013.4
20260904164517 92 180 4.0 11.0 0.00 0.00 0.00 57 1013.5
20260904163517 92 180 4.0 9.0 0.00 0.00 0.00 59 1013.6
20260904162517 93 158 4.0 9.0 0.00 0.00 0.00 58 1013.6
20260904161537 94 180 4.0 9.0 0.00 0.00 0.00 58 1013.7
20260904160517 93 158 3.0 11.0 0.00 0.00 0.00 63 1013.6
20260904155517 91 203 4.0 9.0 0.00 0.00 0.00 66 1013.7
20260904154517 89 180 4.0 10.0 0.00 0.00 0.00 67 1013.4
20260904153517 88 203 3.0 7.0 0.00 0.00 0.00 72 1013.4
20260904152517 87 158 4.0 9.0 0.00 0.00 0.00 74 1013.5
20260904151517 86 135 4.0 8.0 0.00 0.00 0.00 75 1013.5
20260904150537 86 158 3.0 8.0 0.00 0.00 0.00 76 1013.5
20260904145517 85 158 3.0 8.0 0.00 0.00 0.00 77 1013.4
20260904144517 85 135 3.0 6.0 0.00 0.00 0.00 78 1013.4
20260904143537 84 158 4.0 8.0 0.00 0.00 0.00 80 1013.3
20260904142517 83 158 4.0 9.0 0.00 0.00 0.00 83 1013.2
20260904141517 82 135 4.0 8.0 0.00 0.00 0.00 84 1013.3
20260904140537 81 135 3.0 7.0 0.00 0.00 0.00 85 1013.3
20260904135517 80 135 2.0 5.0 0.00 0.00 0.00 86 1013.2
20260904134517 80 180 2.0 7.0 0.00 0.00 0.00 86 1013.1
20260904133517 80 135 3.0 6.0 0.00 0.00 0.00 86 1013.1
20260904132517 80 158 2.0 7.0 0.00 0.00 0.00 86 1012.8
20260904131537 80 135 2.0 5.0 0.00 0.00 0.00 86 1012.7
20260904130537 79 113 2.0 6.0 0.00 0.00 0.00 86 1012.5
20260904125517 79 135 1.0 4.0 0.00 0.00 0.00 86 1012.5
20260904124537 79 135 2.0 5.0 0.00 0.00 0.00 86 1012.4
20260904123517 79 135 3.0 8.0 0.00 0.00 0.00 86 1012.4
20260904122537 79 113 2.0 5.0 0.00 0.00 0.00 86 1012.4
20260904121517 79 135 2.0 5.0 0.00 0.00 0.00 86 1012.3
20260904120537 79 135 1.0 3.0 0.00 0.00 0.00 86 1012.2
20260904115517 79 135 1.0 4.0 0.00 0.00 0.00 85 1012.1
20260904114517 80 135 1.0 2.0 0.00 0.00 0.00 85 1012.1
20260904113537 80 135 1.0 6.0 0.00 0.00 0.00 85 1012.1
20260904112517 80 158 1.0 4.0 0.00 0.00 0.00 85 1012.0
20260904111517 80 135 1.0 7.0 0.00 0.00 0.00 85 1011.9
20260904110517 80 158 2.0 5.0 0.00 0.00 0.00 85 1011.9
20260904105517 80 135 1.0 4.0 0.00 0.00 0.00 85 1011.7
20260904104517 80 135 1.0 3.0 0.00 0.00 0.00 85 1011.9
20260904103517 80 113 1.0 2.0 0.00 0.00 0.00 85 1011.9
20260904102517 80 158 3.0 7.0 0.00 0.00 0.00 85 1011.8
20260904101517 80 180 2.0 6.0 0.00 0.00 0.00 85 1011.7
20260904100517 80 203 2.0 6.0 0.00 0.00 0.00 84 1011.7
20260904095517 80 203 3.0 6.0 0.00 0.00 0.00 84 1011.6
20260904094517 80 158 3.0 9.0 0.00 0.00 0.00 84 1011.6
20260904093517 80 158 3.0 9.0 0.00 0.00 0.00 84 1011.6
20260904092517 80 158 2.0 5.0 0.00 0.00 0.00 84 1011.6
20260904091517 80 180 2.0 5.0 0.00 0.00 0.00 83 1011.7
20260904091119 80 135 3.0 7.0 0.00 0.00 0.00 83 1011.6
20260904090517 80 158 3.0 8.0 0.00 0.00 0.00 83 1011.6
20260904085517 80 135 3.0 8.0 0.00 0.00 0.00 83 1011.6
20260904084517 80 158 4.0 8.0 0.00 0.00 0.00 83 1011.5
20260904083517 80 158 3.0 7.0 0.00 0.00 0.00 83 1011.5
20260904082517 80 158 3.0 7.0 0.00 0.00 0.00 82 1011.5
20260904081537 80 158 3.0 8.0 0.00 0.00 0.00 82 1011.5
20260904080517 80 158 2.0 4.0 0.00 0.00 0.00 82 1011.4
20260904075517 81 158 3.0 8.0 0.00 0.00 0.00 81 1011.6
20260904074517 81 158 3.0 10.0 0.00 0.00 0.00 81 1011.6
20260904073517 81 158 3.0 6.0 0.00 0.00 0.00 80 1011.6
20260904072517 81 158 3.0 7.0 0.00 0.00 0.00 80 1011.7
20260904071517 81 180 3.0 8.0 0.00 0.00 0.00 79 1011.8
20260904070517 81 158 4.0 8.0 0.00 0.00 0.00 79 1011.8
20260904065517 81 135 3.0 7.0 0.00 0.00 0.00 79 1011.8
20260904064517 81 180 3.0 7.0 0.00 0.00 0.00 78 1011.8
20260904063517 81 158 4.0 9.0 0.00 0.00 0.00 78 1011.9
20260904062517 81 180 3.0 6.0 0.00 0.00 0.00 78 1011.9
20260904061517 81 135 3.0 8.0 0.00 0.00 0.00 77 1012.1
20260904060517 81 158 4.0 7.0 0.00 0.00 0.00 76 1012.2
20260904055516 81 180 4.0 7.0 0.00 0.00 0.00 75 1012.2
20260904054516 82 158 3.0 8.0 0.00 0.00 0.00 74 1012.1
20260904053516 82 158 3.0 6.0 0.00 0.00 0.00 73 1011.9
20260904052516 82 135 3.0 8.0 0.00 0.00 0.00 72 1011.9
20260904051516 82 158 3.0 8.0 0.00 0.00 0.00 72 1011.9
20260904050536 82 135 2.0 5.0 0.00 0.00 0.00 72 1011.9
20260904045537 82 113 2.0 7.0 0.00 0.00 0.00 72 1011.7
20260904044537 82 135 3.0 8.0 0.00 0.00 0.00 72 1011.6
20260904043517 82 158 3.0 8.0 0.00 0.00 0.00 71 1011.6
20260904042516 82 158 4.0 11.0 0.00 0.00 0.00 72 1011.6
20260904041516 82 135 3.0 12.0 0.00 0.00 0.00 72 1011.7
20260904040516 83 113 4.0 9.0 0.00 0.00 0.00 72 1011.7
20260904035516 83 113 3.0 6.0 0.00 0.00 0.00 72 1011.7
20260904034516 83 135 3.0 7.0 0.00 0.00 0.00 72 1011.7
20260904033517 83 113 4.0 9.0 0.00 0.00 0.00 71 1011.6
20260904032517 83 135 3.0 10.0 0.00 0.00 0.00 71 1011.6
20260904031517 84 135 3.0 6.0 0.00 0.00 0.00 70 1011.6
20260904030516 84 113 4.0 10.0 0.00 0.00 0.00 70 1011.5
20260904025517 84 135 4.0 10.0 0.00 0.00 0.00 70 1011.4
20260904024517 84 158 4.0 8.0 0.00 0.00 0.00 70 1011.3
20260904023516 85 158 4.0 10.0 0.00 0.00 0.00 71 1011.2
20260904022517 85 158 5.0 11.0 0.00 0.00 0.00 72 1010.9
20260904021516 85 113 5.0 11.0 0.00 0.00 0.00 71 1010.6
20260904020517 86 113 4.0 10.0 0.00 0.00 0.00 69 1010.7
20260904015517 87 113 5.0 10.0 0.00 0.00 0.00 65 1010.2
20260904014517 87 135 4.0 8.0 0.00 0.00 0.00 64 1010.2
20260904013516 87 158 5.0 9.0 0.00 0.00 0.00 64 1010.0
20260904012516 87 180 4.0 10.0 0.00 0.00 0.00 64 1009.9
20260904011517 88 158 5.0 10.0 0.00 0.00 0.00 64 1009.8
20260904010517 88 135 4.0 11.0 0.00 0.00 0.00 64 1009.7
20260904005517 89 135 4.0 10.0 0.00 0.00 0.00 64 1009.5
20260904004517 89 158 6.0 12.0 0.00 0.00 0.00 63 1009.5
20260904003517 90 135 4.0 9.0 0.00 0.00 0.00 63 1009.5
20260904002537 90 135 5.0 11.0 0.00 0.00 0.00 63 1009.5
20260904001537 91 158 4.0 12.0 0.00 0.00 0.00 62 1009.4
20260904000517 91 135 5.0 12.0 0.00 0.00 0.00 62 1009.4
20260903235517 91 158 4.0 10.0 0.00 0.00 0.00 63 1009.3
20260903234517 91 135 5.0 10.0 0.00 0.00 0.00 62 1009.3
20260903233536 91 113 5.0 10.0 0.00 0.00 0.00 62 1009.3
20260903232516 91 135 4.0 9.0 0.00 0.00 0.00 63 1009.0
20260903231517 92 135 5.0 11.0 0.00 0.00 0.00 62 1008.9
20260903230517 92 113 5.0 12.0 0.00 0.00 0.00 62 1008.9
20260903225537 92 113 5.0 11.0 0.00 0.00 0.00 62 1009.0
20260903224536 93 113 5.0 15.0 0.00 0.00 0.00 60 1008.9
20260903223517 93 158 5.0 10.0 0.00 0.00 0.00 60 1008.9
20260903222516 94 158 4.0 9.0 0.00 0.00 0.00 60 1009.0
20260903221517 93 180 4.0 10.0 0.00 0.00 0.00 60 1008.9
20260903220517 94 158 5.0 11.0 0.00 0.00 0.00 61 1009.0
20260903215516 94 135 5.0 10.0 0.00 0.00 0.00 60 1009.2
20260903214517 94 135 4.0 9.0 0.00 0.00 0.00 60 1009.2
20260903213516 94 113 4.0 10.0 0.00 0.00 0.00 60 1009.2
20260903212516 95 158 5.0 11.0 0.00 0.00 0.00 59 1009.3
20260903211537 95 158 5.0 11.0 0.00 0.00 0.00 59 1009.5
20260903210517 95 180 6.0 12.0 0.00 0.00 0.00 59 1009.6
20260903205516 95 158 5.0 11.0 0.00 0.00 0.00 60 1009.8
20260903204516 94 158 5.0 14.0 0.00 0.00 0.00 60 1009.8
20260903203517 94 135 5.0 13.0 0.00 0.00 0.00 62 1010.0
20260903202536 94 158 6.0 12.0 0.00 0.00 0.00 61 1009.9
20260903201516 94 135 6.0 13.0 0.00 0.00 0.00 61 1010.1
20260903200517 95 135 4.0 9.0 0.00 0.00 0.00 61 1010.1
20260903195617 95 90 5.0 11.0 0.00 0.00 0.00 62 1010.2
20260903194517 95 158 6.0 14.0 0.00 0.00 0.00 62 1010.2
20260903193557 93 158 6.0 13.0 0.00 0.00 0.00 64 1010.3
20260903192537 92 113 5.0 12.0 0.00 0.00 0.00 64 1010.5
20260903191517 94 158 5.0 14.0 0.00 0.00 0.00 62 1010.6
20260903190516 95 158 5.0 12.0 0.00 0.00 0.00 61 1010.8
20260903185516 94 135 5.0 10.0 0.00 0.00 0.00 62 1010.9
20260903184536 94 135 5.0 11.0 0.00 0.00 0.00 63 1011.1
20260903183536 94 135 6.0 16.0 0.00 0.00 0.00 62 1011.3
20260903182516 94 158 6.0 12.0 0.00 0.00 0.00 63 1011.4
20260903181537 94 158 6.0 13.0 0.00 0.00 0.00 62 1011.4
20260903180516 95 158 5.0 9.0 0.00 0.00 0.00 62 1011.5
20260903175536 94 158 4.0 9.0 0.00 0.00 0.00 64 1011.6
20260903174537 93 158 4.0 8.0 0.00 0.00 0.00 64 1011.8
20260903173516 92 158 4.0 9.0 0.00 0.00 0.00 65 1011.8
20260903172517 92 135 4.0 10.0 0.00 0.00 0.00 65 1012.0